GW2311 Weather Reports


time (UTC)temp
C
wind
direction
speed
KPH
gust
KPH
rain 1hr
cm
rain 24hr
cm
rain mn
cm
humidity
%
barometer
mb
20260505130227 10 37 0.0 0.0 0.00 0.00 0.00 71 1013.2
20260505124218 11 37 0.0 0.0 0.00 0.00 0.00 68 1012.8
20260505123229 11 37 0.0 0.0 0.00 0.00 0.00 67 1012.8
20260505122241 11 37 0.0 0.0 0.00 0.00 0.00 67 1012.5
20260505121220 11 37 0.0 0.0 0.00 0.00 0.00 67 1012.3
20260505120251 10 37 0.0 0.0 0.00 0.00 0.00 71 1012.0
20260505115242 10 37 0.0 1.6 0.00 0.00 0.00 69 1012.2
20260505114222 11 37 0.0 0.0 0.00 0.00 0.00 69 1012.0
20260505113233 11 37 0.0 0.0 0.00 0.00 0.00 68 1011.7
20260505112244 11 37 0.0 0.0 0.00 0.00 0.00 66 1011.5
20260505111223 11 37 0.0 0.0 0.00 0.00 0.00 67 1011.4
20260505110235 11 37 0.0 0.0 0.00 0.00 0.00 65 1011.4
20260505102217 12 37 0.0 0.0 0.00 0.00 0.00 63 1010.8
20260505101228 12 37 0.0 0.0 0.00 0.00 0.00 63 1010.5
20260505100238 12 37 0.0 0.0 0.00 0.00 0.00 63 1010.2
20260505095218 12 37 0.0 0.0 0.00 0.00 0.00 62 1010.1
20260505094229 12 37 0.0 0.0 0.00 0.00 0.00 61 1010.0
20260505093240 13 37 0.0 1.6 0.00 0.00 0.00 59 1009.8
20260505092220 13 37 0.0 0.0 0.00 0.00 0.00 58 1009.8
20260505091231 13 37 0.0 0.0 0.00 0.00 0.00 58 1009.9
20260505090242 13 57 0.0 0.0 0.00 0.00 0.00 59 1009.8
20260505085222 13 62 0.0 0.0 0.00 0.00 0.00 58 1009.4
20260505084233 13 62 0.0 0.0 0.00 0.00 0.00 59 1009.3
20260505083244 13 62 0.0 0.0 0.00 0.00 0.00 58 1009.2
20260505082224 13 62 0.0 0.0 0.00 0.00 0.00 57 1008.8
20260505081235 13 62 0.0 1.6 0.00 0.00 0.00 57 1008.9
20260505080246 14 62 0.0 1.6 0.00 0.00 0.00 56 1008.8
20260505075226 14 62 0.0 1.6 0.00 0.00 0.00 55 1008.9
20260505074238 15 62 0.0 0.0 0.00 0.00 0.00 52 1008.9
20260505073216 15 62 0.0 1.6 0.00 0.00 0.00 52 1008.8
20260505072247 15 62 0.0 1.6 0.00 0.00 0.00 53 1008.4
20260505071238 16 23 0.0 1.6 0.00 0.00 0.00 52 1008.5
20260505070218 16 41 0.0 0.0 0.00 0.00 0.00 47 1008.4
20260505065229 15 31 0.0 1.6 0.00 0.00 0.00 49 1008.5
20260505064241 16 269 0.0 1.6 0.00 0.00 0.00 49 1008.1
20260505063220 16 269 0.0 1.6 0.00 0.00 0.00 49 1008.2
20260505062231 17 269 0.0 0.0 0.00 0.00 0.00 48 1008.3
20260505061243 17 269 0.0 0.0 0.00 0.00 0.00 45 1008.3
20260505060222 18 269 0.0 0.0 0.00 0.00 0.00 43 1008.1
20260505055233 19 269 0.0 0.0 0.00 0.00 0.00 39 1008.1
20260505054244 20 269 0.0 0.0 0.00 0.00 0.00 37 1008.0
20260505053224 20 287 0.0 3.2 0.00 0.00 0.00 36 1007.8
20260505052235 20 287 3.2 3.2 0.00 0.00 0.00 35 1007.8
20260505051246 20 288 1.6 3.2 0.00 0.00 0.00 35 1008.1
20260505050306 20 288 1.6 1.6 0.00 0.00 0.00 35 1007.5
20260505041219 21 299 1.6 1.6 0.00 0.00 0.00 34 1008.0
20260505040230 21 299 1.6 3.2 0.00 0.00 0.00 34 1007.8
20260505035301 21 299 1.6 1.6 0.00 0.00 0.00 33 1008.0
20260505034221 22 299 0.0 0.0 0.00 0.00 0.00 33 1007.8
20260505033252 22 299 0.0 0.0 0.00 0.00 0.00 31 1007.5
20260505032242 22 299 0.0 0.0 0.00 0.00 0.00 30 1007.7
20260505031222 23 299 0.0 1.6 0.00 0.00 0.00 30 1007.7
20260505030234 23 52 0.0 1.6 0.00 0.00 0.00 29 1007.3
20260505025244 23 328 1.6 3.2 0.00 0.00 0.00 29 1007.4
20260505024225 24 276 3.2 4.8 0.00 0.00 0.00 30 1007.4
20260505023236 24 267 1.6 3.2 0.00 0.00 0.00 28 1007.1
20260505022215 25 290 0.0 3.2 0.00 0.00 0.00 28 1007.0
20260505021227 25 16 1.6 3.2 0.00 0.00 0.00 29 1007.2
20260505020238 25 288 1.6 3.2 0.00 0.00 0.00 30 1007.0
20260505015217 26 272 0.0 4.8 0.00 0.00 0.00 28 1007.3
20260505014228 26 265 0.0 4.8 0.00 0.00 0.00 27 1007.3
20260505013239 26 105 3.2 4.8 0.00 0.00 0.00 27 1007.2
20260505012219 26 280 1.6 3.2 0.00 0.00 0.00 26 1007.2
20260505011230 26 303 1.6 3.2 0.00 0.00 0.00 25 1007.3
20260505010241 26 205 1.6 9.7 0.00 0.00 0.00 22 1007.4
20260505005221 27 303 1.6 3.2 0.00 0.00 0.00 23 1007.5
20260505004252 27 7 1.6 6.4 0.00 0.00 0.00 21 1007.4
20260505003243 27 62 0.0 3.2 0.00 0.00 0.00 22 1007.8
20260505002223 27 18 1.6 4.8 0.00 0.00 0.00 22 1007.9
20260505001234 27 322 3.2 4.8 0.00 0.00 0.00 24 1007.8
20260505000245 27 290 1.6 11.3 0.00 0.00 0.00 23 1007.9
20260504235225 27 302 1.6 4.8 0.00 0.00 0.00 23 1008.0
20260504234236 27 271 3.2 6.4 0.00 0.00 0.00 24 1007.9
20260504233247 27 92 0.0 3.2 0.00 0.00 0.00 25 1008.0
20260504232227 27 345 3.2 12.9 0.00 0.00 0.00 26 1008.2
20260504231238 27 282 1.6 6.4 0.00 0.00 0.00 28 1008.0
20260504230218 26 284 3.2 6.4 0.00 0.00 0.00 28 1008.2
20260504225229 26 283 1.6 9.7 0.00 0.00 0.00 28 1008.6
20260504224239 26 283 4.8 12.9 0.00 0.00 0.00 29 1008.5
20260504223220 26 329 4.8 9.7 0.00 0.00 0.00 29 1008.6
20260504222250 26 291 3.2 6.4 0.00 0.00 0.00 30 1008.9
20260504221242 25 268 4.8 11.3 0.00 0.00 0.00 31 1009.2
20260504220221 25 285 4.8 6.4 0.00 0.00 0.00 33 1009.4
20260504215232 25 277 1.6 9.7 0.00 0.00 0.00 29 1009.4
20260504214243 26 289 0.0 3.2 0.00 0.00 0.00 31 1009.7
20260504213223 26 299 4.8 11.3 0.00 0.00 0.00 32 1009.7
20260504212234 25 275 6.4 9.7 0.00 0.00 0.00 32 1009.8
20260504211245 25 335 3.2 9.7 0.00 0.00 0.00 32 1010.3
20260504210225 25 266 1.6 9.7 0.00 0.00 0.00 33 1010.7
20260504205236 24 300 6.4 9.7 0.00 0.00 0.00 34 1010.5
20260504204216 24 274 3.2 4.8 0.00 0.00 0.00 34 1010.5
20260504203227 24 265 1.6 3.2 0.00 0.00 0.00 34 1010.6
20260504202238 24 302 3.2 6.4 0.00 0.00 0.00 34 1011.0
20260504201238 23 17 1.6 3.2 0.00 0.00 0.00 34 1011.0
20260504200229 23 293 4.8 11.3 0.00 0.00 0.00 33 1011.3
20260504195240 23 215 1.6 6.4 0.00 0.00 0.00 34 1011.4
20260504194300 23 286 1.6 4.8 0.00 0.00 0.00 33 1011.5
20260504193231 23 272 1.6 4.8 0.00 0.00 0.00 35 1011.4
20260504192242 23 205 1.6 6.4 0.00 0.00 0.00 35 1011.7
20260504190233 23 289 3.2 4.8 0.00 0.00 0.00 36 1011.7
20260504185244 22 154 0.0 6.4 0.00 0.00 0.00 36 1012.1
20260504184223 22 290 3.2 6.4 0.00 0.00 0.00 39 1012.2
20260504183235 22 296 0.0 1.6 0.00 0.00 0.00 40 1012.1
20260504182306 21 44 1.6 4.8 0.00 0.00 0.00 39 1012.4
20260504181225 22 82 1.6 3.2 0.00 0.00 0.00 40 1012.5
20260504180236 21 298 3.2 6.4 0.00 0.00 0.00 41 1012.9
20260504175216 21 281 3.2 6.4 0.00 0.00 0.00 42 1012.8
20260504174228 22 275 3.2 3.2 0.00 0.00 0.00 38 1012.8
20260504173239 22 275 1.6 4.8 0.00 0.00 0.00 41 1012.6
20260504172218 22 292 1.6 3.2 0.00 0.00 0.00 39 1012.6
20260504171229 22 13 0.0 1.6 0.00 0.00 0.00 41 1012.9
20260504170240 22 296 0.0 1.6 0.00 0.00 0.00 39 1013.0
20260504160244 20 92 0.0 1.6 0.00 0.00 0.00 44 1013.2
20260504150319 16 273 0.0 0.0 0.00 0.00 0.00 53 1013.3
20260504140322 9 284 0.0 0.0 0.00 0.00 0.00 79 1013.0